• In Hungary
  • List of Countries
  • For 7 days
  • Water Temperature
  • Satellite Maps
  • Weather Map
  • News
  • Weather Widgets
  • user-avatar
    Login

    Hourly Weather Kazanlak

    Today, 17 January, Wednesday

    Time Temperature Precipitation Wind Pressure Humidity
    00:00 +1°C° 0 mm 1 mps 702 mmHg 86%
    01:00 -1°C° 0 mm 2 mps 701 mmHg 85%
    02:00 -1°C° 0 mm 2 mps 701 mmHg 85%
    03:00 -1°C° 0 mm 2 mps 700 mmHg 84%
    04:00 -1°C° 0 mm 2 mps 700 mmHg 83%
    05:00 -1°C° 0 mm 2 mps 699 mmHg 83%
    06:00 -1°C° 0 mm 2 mps 699 mmHg 82%
    07:00 +1°C° 0 mm 1 mps 699 mmHg 82%
    08:00 +1°C° 0 mm 1 mps 698 mmHg 82%
    09:00 +1°C° 0 mm 2 mps 698 mmHg 80%
    10:00 +3°C° 0 mm 2 mps 698 mmHg 78%
    11:00 +4°C° 0 mm 2 mps 697 mmHg 77%
    12:00 +5°C° 0 mm 2 mps 696 mmHg 76%
    13:00 +4°C° 0 mm 3 mps 695 mmHg 75%
    14:00 +4°C° 0 mm 3 mps 694 mmHg 75%
    15:00 +4°C° 0 mm 3 mps 692 mmHg 76%
    16:00 +4°C° 0 mm 3 mps 691 mmHg 77%
    17:00 +3°C° 0 mm 4 mps 690 mmHg 79%
    18:00 +3°C° 0.1 mm 4 mps 690 mmHg 80%
    19:00 +3°C° 0.1 mm 3 mps 689 mmHg 82%
    20:00 +3°C° 0.1 mm 3 mps 689 mmHg 83%
    21:00 +3°C° 0.4 mm 4 mps 689 mmHg 84%
    22:00 +1°C° 0.4 mm 4 mps 689 mmHg 85%
    23:00 +1°C° 0.4 mm 5 mps 689 mmHg 87%

    Tomorrow, 18 January, Thursday

    Time Temperature Precipitation Wind Pressure Humidity
    00:00 -1°C° 0 mm 6 mps 690 mmHg 83%
    01:00 -2°C° 0 mm 7 mps 691 mmHg 79%
    02:00 -2°C° 0 mm 8 mps 692 mmHg 75%
    03:00 -4°C° 0 mm 8 mps 692 mmHg 73%
    04:00 -4°C° 0 mm 8 mps 693 mmHg 71%
    05:00 -5°C° 0 mm 9 mps 694 mmHg 69%
    06:00 -5°C° 0 mm 9 mps 694 mmHg 69%
    07:00 -6°C° 0 mm 9 mps 695 mmHg 68%
    08:00 -6°C° 0 mm 9 mps 696 mmHg 67%
    09:00 -5°C° 0 mm 10 mps 697 mmHg 64%
    10:00 -5°C° 0 mm 10 mps 698 mmHg 61%
    11:00 -4°C° 0 mm 11 mps 700 mmHg 58%
    12:00 -4°C° 0 mm 10 mps 700 mmHg 56%
    13:00 -3°C° 0 mm 10 mps 701 mmHg 55%
    14:00 -2°C° 0 mm 10 mps 701 mmHg 53%
    15:00 -2°C° 0 mm 8 mps 702 mmHg 56%
    16:00 -3°C° 0 mm 7 mps 703 mmHg 59%
    17:00 -2°C° 0 mm 5 mps 703 mmHg 62%
    18:00 -4°C° 0 mm 5 mps 704 mmHg 63%
    19:00 -3°C° 0 mm 4 mps 704 mmHg 65%
    20:00 -4°C° 0 mm 4 mps 704 mmHg 66%
    21:00 -4°C° 0 mm 3 mps 705 mmHg 64%
    22:00 -4°C° 0 mm 3 mps 705 mmHg 63%
    23:00 -3°C° 0 mm 2 mps 705 mmHg 61%

    Day after tomorrow, 19 January, Friday

    Time Temperature Precipitation Wind Pressure Humidity
    00:00 -3°C° 0 mm 2 mps 704 mmHg 59%
    01:00 -3°C° 0 mm 2 mps 704 mmHg 58%
    02:00 -3°C° 0 mm 2 mps 704 mmHg 56%
    03:00 -2°C° 0 mm 2 mps 704 mmHg 56%
    04:00 -2°C° 0 mm 2 mps 703 mmHg 56%
    05:00 -2°C° 0 mm 2 mps 703 mmHg 56%
    06:00 -2°C° 0 mm 2 mps 703 mmHg 56%
    07:00 -2°C° 0 mm 2 mps 703 mmHg 56%
    08:00 -2°C° 0 mm 2 mps 703 mmHg 56%
    09:00 +1°C° 0 mm 2 mps 704 mmHg 53%
    10:00 +3°C° 0 mm 2 mps 704 mmHg 49%
    11:00 +5°C° 0 mm 2 mps 704 mmHg 46%
    12:00 +5°C° 0 mm 2 mps 704 mmHg 46%
    13:00 +7°C° 0 mm 1 mps 703 mmHg 46%
    14:00 +8°C° 0 mm 1 mps 703 mmHg 46%
    15:00 +6°C° 0 mm 1 mps 703 mmHg 50%
    16:00 +5°C° 0 mm 1 mps 703 mmHg 54%
    17:00 +4°C° 0 mm 1 mps 703 mmHg 58%
    18:00 +4°C° 0 mm 1 mps 703 mmHg 58%
    19:00 +3°C° 0 mm 1 mps 703 mmHg 58%
    20:00 +2°C° 0 mm 2 mps 703 mmHg 57%
    21:00 +2°C° 0 mm 2 mps 703 mmHg 59%
    22:00 +2°C° 0 mm 2 mps 703 mmHg 61%
    23:00 +2°C° 0 mm 2 mps 703 mmHg 62%

    20 January, Saturday

    Time Temperature Precipitation Wind Pressure Humidity
    00:00 +2°C° 0 mm 2 mps 703 mmHg 64%
    01:00 +2°C° 0 mm 2 mps 703 mmHg 65%
    02:00 +3°C° 0 mm 1 mps 703 mmHg 67%
    03:00 +3°C° 0 mm 1 mps 702 mmHg 68%
    04:00 +2°C° 0 mm 1 mps 702 mmHg 69%
    05:00 +2°C° 0 mm 1 mps 702 mmHg 70%
    06:00 +2°C° 0 mm 1 mps 702 mmHg 71%
    07:00 +1°C° 0 mm 2 mps 701 mmHg 72%
    08:00 +1°C° 0 mm 2 mps 701 mmHg 73%
    09:00 +2°C° 0 mm 2 mps 701 mmHg 71%
    10:00 +4°C° 0 mm 2 mps 701 mmHg 68%
    11:00 +6°C° 0 mm 2 mps 701 mmHg 65%
    12:00 +5°C° 0 mm 3 mps 701 mmHg 65%
    13:00 +7°C° 0 mm 3 mps 700 mmHg 64%
    14:00 +7°C° 0 mm 4 mps 699 mmHg 64%
    15:00 +7°C° 0 mm 4 mps 699 mmHg 68%
    16:00 +6°C° 0 mm 4 mps 699 mmHg 72%
    17:00 +6°C° 0 mm 4 mps 698 mmHg 77%
    18:00 +6°C° 0 mm 4 mps 698 mmHg 80%
    19:00 +5°C° 0 mm 4 mps 698 mmHg 82%
    20:00 +5°C° 0 mm 5 mps 697 mmHg 85%
    21:00 +5°C° 0 mm 5 mps 697 mmHg 85%
    22:00 +5°C° 0 mm 5 mps 697 mmHg 85%
    23:00 +4°C° 0 mm 6 mps 696 mmHg 85%

    21 January, Sunday

    Time Temperature Precipitation Wind Pressure Humidity
    00:00 +4°C° 0 mm 6 mps 696 mmHg 84%
    01:00 +4°C° 0 mm 6 mps 695 mmHg 84%
    02:00 +4°C° 0 mm 6 mps 695 mmHg 83%
    03:00 +5°C° 0.3 mm 5 mps 695 mmHg 83%
    04:00 +5°C° 0.3 mm 5 mps 694 mmHg 84%
    05:00 +5°C° 0.3 mm 5 mps 694 mmHg 84%
    06:00 +5°C° 1.3 mm 5 mps 694 mmHg 84%
    07:00 +4°C° 1.3 mm 4 mps 694 mmHg 84%
    08:00 +4°C° 1.3 mm 4 mps 694 mmHg 84%
    09:00 +4°C° 2.3 mm 4 mps 693 mmHg 84%
    10:00 +3°C° 2.3 mm 4 mps 693 mmHg 84%
    11:00 +3°C° 2.3 mm 4 mps 693 mmHg 84%
    12:00 +1°C° 3.2 mm 5 mps 693 mmHg 85%
    13:00 -1°C° 3.2 mm 6 mps 692 mmHg 86%
    14:00 -2°C° 3.2 mm 7 mps 692 mmHg 87%
    15:00 -3°C° 1.6 mm 6 mps 692 mmHg 87%
    16:00 -3°C° 1.6 mm 6 mps 692 mmHg 87%
    17:00 -4°C° 1.6 mm 6 mps 692 mmHg 87%
    18:00 -4°C° 0.6 mm 6 mps 693 mmHg 86%
    19:00 -4°C° 0.6 mm 5 mps 693 mmHg 86%
    20:00 -5°C° 0.6 mm 5 mps 694 mmHg 86%
    21:00 -5°C° 0.2 mm 5 mps 694 mmHg 86%
    22:00 -5°C° 0.2 mm 5 mps 694 mmHg 85%
    23:00 -5°C° 0.2 mm 5 mps 695 mmHg 85%

    22 January, Monday

    Time Temperature Precipitation Wind Pressure Humidity
    00:00 -6°C° 0.1 mm 5 mps 695 mmHg 85%
    01:00 -6°C° 0.1 mm 5 mps 695 mmHg 84%
    02:00 -6°C° 0.1 mm 5 mps 695 mmHg 84%
    03:00 -6°C° 0.1 mm 5 mps 695 mmHg 84%
    04:00 -6°C° 0.1 mm 5 mps 695 mmHg 84%
    05:00 -7°C° 0.1 mm 5 mps 696 mmHg 85%
    06:00 -7°C° 0.1 mm 5 mps 696 mmHg 85%
    07:00 -7°C° 0.1 mm 5 mps 697 mmHg 85%
    08:00 -7°C° 0.1 mm 5 mps 698 mmHg 85%
    09:00 -6°C° 0.2 mm 5 mps 698 mmHg 83%
    10:00 -6°C° 0.2 mm 5 mps 699 mmHg 82%
    11:00 -5°C° 0.2 mm 5 mps 700 mmHg 80%
    12:00 -5°C° 0.1 mm 6 mps 700 mmHg 79%
    13:00 -5°C° 0.1 mm 6 mps 701 mmHg 78%
    14:00 -5°C° 0.1 mm 6 mps 701 mmHg 76%
    15:00 -5°C° 0 mm 5 mps 701 mmHg 76%
    16:00 -5°C° 0 mm 5 mps 702 mmHg 76%
    17:00 -5°C° 0 mm 4 mps 702 mmHg 77%
    18:00 -5°C° 0 mm 4 mps 703 mmHg 77%
    19:00 -7°C° 0 mm 4 mps 703 mmHg 78%
    20:00 -7°C° 0 mm 5 mps 704 mmHg 78%
    21:00 -8°C° 0 mm 4 mps 704 mmHg 78%
    22:00 -8°C° 0 mm 4 mps 704 mmHg 79%
    23:00 -9°C° 0 mm 4 mps 705 mmHg 79%
    Show more